Regional Weather Roundup
Issued by NWS Sterling, VA

Home | Current Version | Previous Version | Graphics & Text | Print | Product List | Glossary On
Versions: 1 2 3 4 5 6 7 8 9 10 11 12 13 14 15 16 17 18 19 20 21 22 23 24 25 26 27 28 29 30 31 32 33 34 35 36 37 38 39 40 41 42 43 44 45 46 47 48 49 50
000
ASUS41 KLWX 291710
RWRLWX

REGIONAL WEATHER ROUNDUP
NATIONAL WEATHER SERVICE BALTIMORE MD/WASHINGTON DC
100 PM EDT SUN MAR 29 2015

Note: "FAIR" indicates few or no clouds below 12,000 feet
with no significant weather and/or obstructions to visibility.
 TC=TEMPERATURE CELSIUS

 * =Non NWS site. Station does not report precipitation (e.g. rain,
    snow, etc.), thunder, or fog.

DCZ001-MDZ009-015-VAZ040>042-051-053>054-291800-
WASHINGTON METRO

CITY           SKY/WX    TMP DP  RH WIND       PRES   REMARKS
WASHINGTON NAT SUNNY     41   9  26 VRB3      30.38F
DULLES         MOSUNNY   37   6  27 N3        30.36F
ANDREWS AFB    SUNNY     37   6  27 NW5       30.35F
FT BELVOIR     SUNNY     39   7  26 NW9       30.38F
QUANTICO       SUNNY     40   8  26 CALM      30.39F
COLLEGE PARK*  SUNNY     37   9  30 NW6       30.37F
LEESBURG*      SUNNY     37  12  35 NW8       30.36F
MANASSAS*      SUNNY     37   7  28 NW7       30.38F
GAITHERSBURG*  SUNNY     37  10  32 NW6       30.38F

$$

MDZ006>007-011-014-291800-
BALTIMORE METRO

CITY           SKY/WX    TMP DP  RH WIND       PRES   REMARKS
BWI AIRPORT    SUNNY     40   6  24 N6        30.34F
MARTIN STATE   SUNNY     39   9  28 NW9       30.36F
ANNAPOLIS      SUNNY     37   8  30 NW10      30.35F

$$

MDZ012-015-019>023-291800-
MARYLAND EASTERN SHORE

CITY           SKY/WX    TMP DP  RH WIND       PRES   REMARKS
OCEAN CITY     SUNNY     40  10  29 N17G23    30.33F
SALISBURY      SUNNY     39  12  33 NW15G22   30.34F
BAY BRIDGE AP*   N/A     36  10  35 N7        30.36F
CAMBRIDGE*     SUNNY     37  14  38 NW10G17   30.36F
EASTON*        SUNNY     39  12  33 N13G24    30.39F

$$

MDZ017>025-291800-
SOUTHERN MARYLAND

CITY           SKY/WX    TMP DP  RH WIND       PRES   REMARKS
PATUXENT RIVER SUNNY     38   6  26 NW12G22   30.37F
ST INIGOES     SUNNY     38  13  35 W15G22    30.37F
LEONARDTOWN*   SUNNY     37   7  28 NW7       30.38F

$$

MDZ003>005-291800-
NORTH CENTRAL MARYLAND

CITY           SKY/WX    TMP DP  RH WIND       PRES   REMARKS
FREDERICK*     NOT AVBL
HAGERSTOWN APT SUNNY     36   3  25 CALM      30.33F
WESTMINSTER*   SUNNY     36  -2  20 NE6       30.31F

$$

MDZ501>502-291800-
WESTERN MARYLAND

CITY           SKY/WX    TMP DP  RH WIND       PRES   REMARKS
OAKLAND*       SUNNY     30  10  43 CALM      30.21F
CUMBERLAND*    SUNNY     41   9  26 S8        30.35F

$$

VAZ025>031-291800-
SHENANDOAH VALLEY

CITY           SKY/WX    TMP DP  RH WIND       PRES   REMARKS
WINCHESTER*    SUNNY     39  -4  16 W6        30.34F
FRONT ROYAL*   FAIR      39   5  24 SE8       30.33F
LURAY*         FAIR      41   9  26 CALM      30.34F
NEW MARKET*    FAIR      37   5  26 SE7       30.33F
STAUNTON*      SUNNY     39   4  22 CALM      30.35F
WAYNESBORO*    FAIR      37   3  23 NE6       30.32F

$$

WVZ021-048>050-054>055-291800-
EASTERN WEST VIRGINIA PANHANDLE

CITY           SKY/WX    TMP DP  RH WIND       PRES   REMARKS
MARTINSBURG    SUNNY     40   6  24 VRB3      30.35F
PETERSBURG*    SUNNY     40   1  19 CALM      30.32F

$$

VAZ036>039-050-291800-
CENTRAL FOOTHILLS

CITY           SKY/WX    TMP DP  RH WIND       PRES   REMARKS
CHARLOTTESVILL SUNNY     40   0  18 E3        30.35F
CULPEPER*      SUNNY     41   5  22 NW3       30.37F
ORANGE*        SUNNY     41   9  26 W5        30.39F
GORDONSVILLE*  FAIR      38   3  22 SW5       30.37F
WARRENTON*     FAIR      40  14  34 SE5       30.36F

$$

VAZ055>057-291800-
NORTH AND CENTRAL PIEDMONT

CITY           SKY/WX    TMP DP  RH WIND       PRES   REMARKS
FREDERICKSBRG* SUNNY     40   7  24 N3        30.38F
STAFFORD*      SUNNY     39   4  23 W8        30.42F

$$

NCZ024-NYZ072-PAZ021-071-VAZ022-071-291800-
OTHER REGIONAL OBSERVATIONS

CITY           SKY/WX    TMP DP  RH WIND       PRES   REMARKS
NEW YORK CITY  SUNNY     39   0  19 NW9G18    30.28F
PHILADELPHIA   SUNNY     40   6  24 N14       30.32F
PITTSBURGH     MOSUNNY   36   9  32 SW12      30.29F WCI  28
ROANOKE        SUNNY     41   7  24 VRB5      30.37F
RICHMOND       SUNNY     42   4  20 W8G20     30.39F
RALEIGH        SUNNY     43   7  22 SE5       30.41F

$$

ANZ530>537-291800-
MARINE OBSERVATIONS

STATION/POSITION TIME  TEMP    WIND        PRES
                       AIR SEA DIR/SP/G
                 (UTC) (F)     (DEG/KT/KT) (MB)
THOMAS PT LIGHT  1700                        N/A
BALT KEY BRIDGE  1600   33     290/  8/ 10 1028.8F
COVE POINT       1600   32      10/  8/ 10 1028.9F
LEWISETTA        1600   33 42              1029.1F
SOLOMONS ISLAND  1600      42                N/A
PINEY POINT      1600          310/ 14/ 17   N/A

$$



USA.gov is the U.S. government's official web portal to all federal, state and local government web resources and services.